Weather History for Morganton, NC

Change the Weather History Date:

Tuesday, March 19, 2013

  Actual Average (KHKY) Record (KHKY)
Temperature  
Mean Temperature 46 °F -  
Max Temperature 60 °F 61 °F 82 °F (2012)
Min Temperature 32 °F 39 °F 23 °F (1959)
Degree Days  
Heating Degree Days 19    
Moisture  
Dew Point 25 °F    
Average Humidity 54    
Maximum Humidity 100    
Minimum Humidity 15    
Precipitation  
Precipitation 0.01 in - - ()
Sea Level Pressure  
Sea Level Pressure 29.98 in    
Wind  
Wind Speed 5 mph (WNW)    
Max Wind Speed 18 mph    
Max Gust Speed 29 mph    
Visibility 7 miles    
Events Fog    
Averages and records for this station are not official NWS values.
T = Trace of Precipitation, MM = Missing Value Source: NWS Daily Summary

Daily Weather History Graph

Daily Weather History Graph

Search for Another Location

Airport:

Trip Planner

Search our weather history database for the weather conditions in past years. The results will help you decide how hot, cold, wet, or windy it might be!

Date:

Astronomy

Mar. 19, 2013 Rise Set
Actual Time 7:31 AM EDT 7:37 PM EDT
Civil Twilight 7:05 AM EDT 8:03 PM EDT
Nautical Twilight 6:35 AM EDT 8:32 PM EDT
Astronomical Twilight 6:05 AM EDT 9:03 PM EDT
Moon 12:30 PM EDT (3/19) 2:12 AM EDT (3/19)
Length of Visible Light 12h 57m
Length of Day
12h 06m
Waxing Crescent, 49% of the Moon is Illuminated
Mar 19
Waxing Crescent
Mar 19
First Quarter
Mar 27
Full
Apr 3
Last Quarter
Apr 10
New

Hourly Weather History & Observations

Time (EDT) Temp. Windchill Dew Point Humidity Pressure Visibility Wind Dir Wind Speed Gust Speed Precip Events Conditions
12:15 AM 37.6 °F 35.1 °F 37.6 °F 100% 29.93 in 0.8 mi NW 3.5 mph - N/A   Overcast
12:35 AM 37.6 °F - 37.6 °F 100% 29.92 in 0.8 mi Calm Calm - N/A   Overcast
12:55 AM 37.2 °F - 37.2 °F 100% 29.92 in 0.5 mi Calm Calm - N/A Fog Fog
1:15 AM 37.4 °F 34.9 °F 37.4 °F 100% 29.93 in 0.8 mi WNW 3.5 mph - N/A   Overcast
1:35 AM 37.4 °F - 37.4 °F 100% 29.90 in 0.5 mi Calm Calm - N/A Fog Fog
1:55 AM 37.4 °F - 37.4 °F 100% 29.90 in 0.8 mi Calm Calm - 0.01 in   Overcast
2:15 AM 37.8 °F - 37.8 °F 100% 29.90 in 1.8 mi Calm Calm - N/A   Overcast
2:55 AM 38.3 °F - 38.3 °F 100% 29.90 in 0.5 mi Calm Calm - N/A Fog Fog
3:15 AM 38.3 °F - 38.3 °F 100% 29.90 in 0.2 mi Calm Calm - N/A Fog Fog
3:35 AM 38.3 °F 35.9 °F 38.3 °F 100% 29.89 in 0.2 mi West 3.5 mph - N/A Fog Fog
3:55 AM 38.3 °F 35.9 °F 38.3 °F 100% 29.89 in 0.2 mi WSW 3.5 mph - N/A Fog Fog
4:15 AM 38.5 °F - 38.5 °F 100% 29.89 in 0.2 mi Calm Calm - N/A Fog Fog
4:35 AM 38.5 °F - 38.5 °F 100% 29.88 in 0.2 mi Calm Calm - N/A Fog Fog
4:55 AM 38.5 °F - 38.5 °F 100% 29.87 in 0.2 mi Calm Calm - N/A Fog Fog
5:15 AM 38.5 °F - 38.5 °F 100% 29.88 in 0.2 mi Calm Calm - N/A Fog Fog
5:35 AM 38.5 °F 35.0 °F 38.5 °F 100% 29.88 in 0.2 mi West 4.6 mph - N/A Fog Fog
5:55 AM 38.8 °F - 38.8 °F 100% 29.89 in 0.2 mi Calm Calm - N/A Fog Fog
6:15 AM 38.8 °F 36.5 °F 38.8 °F 100% 29.89 in 0.2 mi West 3.5 mph - N/A Fog Fog
6:35 AM 38.8 °F 36.5 °F 38.8 °F 100% 29.90 in 0.2 mi West 3.5 mph - N/A Fog Fog
6:55 AM 38.8 °F 36.5 °F 38.8 °F 100% 29.91 in 0.2 mi West 3.5 mph - N/A Fog Fog
7:15 AM 38.8 °F - 38.8 °F 100% 29.92 in 0.2 mi Calm Calm - N/A Fog Fog
7:35 AM 38.7 °F - 38.7 °F 100% 29.93 in 0.2 mi Calm Calm - N/A Fog Fog
7:55 AM 38.3 °F - 38.3 °F 100% 29.94 in 0.2 mi Calm Calm - N/A Fog Fog
8:15 AM 37.8 °F - 37.8 °F 100% 29.95 in 5.0 mi Calm Calm - N/A   Scattered Clouds
8:35 AM 38.8 °F - 38.8 °F 100% 29.97 in 10.0 mi Calm Calm - N/A   Clear
8:55 AM 41.5 °F 37.8 °F 41.5 °F 100% 29.99 in 10.0 mi NNW 5.8 mph - N/A   Clear
9:15 AM 43.7 °F 39.7 °F 43.7 °F 100% 29.99 in 10.0 mi NW 6.9 mph - N/A   Clear
9:35 AM 46.8 °F - 33.3 °F 59% 30.00 in 10.0 mi WNW 11.5 mph 19.6 mph N/A   Clear
9:55 AM 47.7 °F - 31.1 °F 53% 30.01 in 10.0 mi NW 13.8 mph 24.2 mph N/A   Clear
10:15 AM 48.9 °F - 29.3 °F 47% 30.00 in 10.0 mi WNW 8.1 mph - N/A   Clear
10:35 AM 50.0 °F - 26.8 °F 41% 29.99 in 10.0 mi NW 9.2 mph - N/A   Clear
10:55 AM 51.1 °F - 25.9 °F 38% 29.99 in 10.0 mi NNW 10.4 mph - N/A   Clear
11:15 AM 51.8 °F - 24.4 °F 34% 29.99 in 10.0 mi NW 10.4 mph - N/A   Clear
11:35 AM 52.7 °F - 22.8 °F 31% 29.98 in 10.0 mi North 8.1 mph - N/A   Clear
11:55 AM 53.8 °F - 24.3 °F 32% 29.99 in 10.0 mi WNW 9.2 mph - N/A   Clear
12:15 PM 55.4 °F - 24.1 °F 30% 30.00 in 10.0 mi NW 5.8 mph - N/A   Clear
12:35 PM 56.5 °F - 21.0 °F 25% 29.99 in 10.0 mi SW 9.2 mph - N/A   Clear
12:55 PM 57.2 °F - 18.3 °F 22% 29.99 in 10.0 mi West 12.7 mph 20.7 mph N/A   Clear
1:15 PM 57.7 °F - 16.9 °F 20% 29.99 in 10.0 mi West 13.8 mph 18.4 mph N/A   Clear
1:35 PM 58.3 °F - 17.2 °F 20% 29.99 in 10.0 mi West 17.3 mph 23.0 mph N/A   Clear
1:55 PM 58.5 °F - 16.0 °F 19% 29.99 in 10.0 mi West 13.8 mph 25.3 mph N/A   Clear
2:15 PM 59.4 °F - 18.5 °F 20% 29.99 in 10.0 mi WSW 13.8 mph 20.7 mph N/A   Clear
2:35 PM 59.4 °F - 18.3 °F 20% 30.00 in 10.0 mi West 16.1 mph 26.5 mph N/A   Clear
2:55 PM 60.4 °F - 18.7 °F 20% 30.00 in 10.0 mi WNW 11.5 mph 19.6 mph N/A   Clear
3:15 PM 60.3 °F - 15.4 °F 17% 29.99 in 10.0 mi WNW 13.8 mph 24.2 mph N/A   Clear
3:35 PM 60.6 °F - 17.1 °F 18% 29.99 in 10.0 mi West 15.0 mph 18.4 mph N/A   Clear
3:55 PM 60.1 °F - 16.5 °F 18% 30.00 in 10.0 mi West 16.1 mph 26.5 mph N/A   Clear
4:15 PM 59.9 °F - 15.8 °F 18% 30.00 in 10.0 mi West 13.8 mph 27.6 mph N/A   Clear
4:35 PM 60.8 °F - 16.9 °F 18% 30.00 in 10.0 mi West 12.7 mph 21.9 mph N/A   Clear
4:55 PM 60.8 °F - 15.1 °F 17% 30.00 in 10.0 mi WNW 11.5 mph 23.0 mph N/A   Clear
5:15 PM 60.6 °F - 12.9 °F 15% 30.00 in 10.0 mi West 18.4 mph 28.8 mph N/A   Clear
5:35 PM 59.9 °F - 12.2 °F 15% 30.00 in 10.0 mi West 12.7 mph 28.8 mph N/A   Clear
5:55 PM 59.4 °F - 13.3 °F 16% 30.01 in 10.0 mi West 17.3 mph 24.2 mph N/A   Clear
6:15 PM 58.3 °F - 15.3 °F 19% 30.02 in 10.0 mi West 15.0 mph 20.7 mph N/A   Clear
6:35 PM 57.4 °F - 14.9 °F 19% 30.03 in 10.0 mi West 16.1 mph 21.9 mph N/A   Clear
6:55 PM 56.3 °F - 15.4 °F 20% 30.04 in 10.0 mi WNW 12.7 mph 18.4 mph N/A   Clear
7:15 PM 55.2 °F - 16.0 °F 21% 30.05 in 10.0 mi WNW 13.8 mph 21.9 mph N/A   Clear
7:35 PM 54.0 °F - 15.3 °F 22% 30.05 in 10.0 mi West 12.7 mph 18.4 mph N/A   Clear
7:55 PM 53.4 °F - 11.3 °F 19% 30.06 in 10.0 mi West 15.0 mph 19.6 mph N/A   Clear
8:15 PM 52.7 °F - 7.0 °F 16% 30.07 in 10.0 mi West 11.5 mph 18.4 mph N/A   Clear
8:35 PM 52.0 °F - 7.7 °F 17% 30.08 in 10.0 mi West 11.5 mph 23.0 mph N/A   Clear
8:55 PM 51.8 °F - 7.2 °F 17% 30.08 in 10.0 mi West 8.1 mph 18.4 mph N/A   Clear
9:15 PM 50.9 °F - 7.7 °F 17% 30.09 in 10.0 mi WNW 12.7 mph 19.6 mph N/A   Clear
9:35 PM 50.2 °F - 6.3 °F 17% 30.10 in 10.0 mi West 8.1 mph 17.3 mph N/A   Clear
9:55 PM 49.8 °F - 5.5 °F 17% 30.10 in 10.0 mi West 6.9 mph - N/A   Clear
10:15 PM 48.2 °F - 7.2 °F 19% 30.10 in 10.0 mi West 3.5 mph - N/A   Clear
10:35 PM 43.0 °F - 11.8 °F 28% 30.11 in 10.0 mi Calm Calm - N/A   Clear
10:55 PM 35.8 °F - 15.4 °F 44% 30.10 in 10.0 mi Calm Calm - N/A   Clear
11:15 PM 36.1 °F - 17.2 °F 46% 30.11 in 10.0 mi Calm Calm - N/A   Clear
11:35 PM 32.0 °F - 18.7 °F 58% 30.10 in 10.0 mi Calm Calm - N/A   Clear
11:55 PM 34.3 °F 31.4 °F 18.7 °F 53% 30.10 in 10.0 mi WNW 3.5 mph - N/A   Clear